| time (UTC) | temp F | wind direction | speed MPH | gust MPH | rain 1hr in | rain 24hr in | rain mn in | humidity % | barometer mb |
| 20260901173055 | 52 | 57 | 0.0 | 0.0 | 0.00 | 0.00 | 0.00 | 84 | |
| 20260901172054 | 53 | 57 | 0.0 | 0.0 | 0.00 | 0.00 | 0.00 | 84 | |
| 20260901171054 | 54 | 57 | 0.0 | 0.0 | 0.00 | 0.00 | 0.00 | 80 | |
| 20260901170053 | 54 | 57 | 0.0 | 0.0 | 0.00 | 0.00 | 0.00 | 77 | |
| 20260901165054 | 54 | 57 | 0.0 | 0.0 | 0.00 | 0.00 | 0.00 | 77 | |
| 20260901164052 | 54 | 57 | 0.0 | 0.0 | 0.00 | 0.00 | 0.00 | 78 | |
| 20260901163052 | 54 | 57 | 0.0 | 0.0 | 0.00 | 0.00 | 0.00 | 78 | |
| 20260901162122 | 54 | 57 | 0.0 | 0.0 | 0.00 | 0.00 | 0.00 | 78 | |
| 20260901162051 | 54 | 57 | 0.0 | 0.0 | 0.00 | 0.00 | 0.00 | 78 | |
| 20260901161050 | 55 | 57 | 0.0 | 0.0 | 0.00 | 0.00 | 0.00 | 100 | |
| 20260901160052 | 56 | 57 | 0.0 | 0.0 | 0.00 | 0.00 | 0.00 | 72 | |
| 20260901155049 | 58 | 57 | 0.0 | 0.0 | 0.00 | 0.00 | 0.00 | 72 | |
| 20260901154049 | 59 | 57 | 0.0 | 0.0 | 0.00 | 0.00 | 0.00 | 71 | |
| 20260901153048 | 58 | 57 | 0.0 | 0.0 | 0.00 | 0.00 | 0.00 | 72 | |
| 20260901152047 | 57 | 57 | 0.0 | 0.0 | 0.00 | 0.00 | 0.00 | 73 | |
| 20260901151047 | 57 | 57 | 0.0 | 0.0 | 0.00 | 0.00 | 0.00 | 73 | |
| 20260901150046 | 56 | 57 | 0.0 | 0.0 | 0.00 | 0.00 | 0.00 | 73 | |
| 20260901145046 | 57 | 57 | 0.0 | 0.0 | 0.00 | 0.00 | 0.00 | 72 | |
| 20260901144045 | 58 | 57 | 0.0 | 0.0 | 0.00 | 0.00 | 0.00 | 65 | |
| 20260901143044 | 58 | 57 | 0.0 | 0.0 | 0.00 | 0.00 | 0.00 | 71 | |
| 20260901142044 | 59 | 57 | 0.0 | 0.0 | 0.00 | 0.00 | 0.00 | 100 | |
| 20260901141043 | 59 | 57 | 0.0 | 0.0 | 0.00 | 0.00 | 0.00 | 68 | |
| 20260901140043 | 59 | 57 | 0.0 | 0.0 | 0.00 | 0.00 | 0.00 | 100 | |
| 20260901135042 | 59 | 57 | 0.0 | 0.0 | 0.00 | 0.00 | 0.00 | 70 | |
| 20260901134042 | 58 | 57 | 0.0 | 0.0 | 0.00 | 0.00 | 0.00 | 71 | |
| 20260901133042 | 59 | 57 | 0.0 | 0.0 | 0.00 | 0.00 | 0.00 | 68 | |
| 20260901132040 | 60 | 57 | 0.0 | 0.0 | 0.00 | 0.00 | 0.00 | 100 | |
| 20260901131040 | 59 | 57 | 0.0 | 0.0 | 0.00 | 0.00 | 0.00 | 67 | |
| 20260901130039 | 58 | 57 | 0.0 | 0.0 | 0.00 | 0.00 | 0.00 | 71 | |
| 20260901125039 | 57 | 57 | 0.0 | 0.0 | 0.00 | 0.00 | 0.00 | 72 | |
| 20260901124038 | 57 | 57 | 0.0 | 0.0 | 0.00 | 0.00 | 0.00 | 73 | |
| 20260901123037 | 56 | 57 | 0.0 | 0.0 | 0.00 | 0.00 | 0.00 | 76 | |
| 20260901122037 | 56 | 57 | 0.0 | 0.0 | 0.00 | 0.00 | 0.00 | 75 | |
| 20260901121036 | 56 | 57 | 0.0 | 0.0 | 0.00 | 0.00 | 0.00 | 76 | |
| 20260901120036 | 57 | 57 | 0.0 | 0.0 | 0.00 | 0.00 | 0.00 | 73 | |
| 20260901114035 | 60 | 54 | 0.0 | 0.0 | 0.00 | 0.00 | 0.00 | 66 | |
| 20260901113034 | 60 | 54 | 0.0 | 0.0 | 0.00 | 0.00 | 0.00 | 65 | |
| 20260901112033 | 61 | 54 | 0.0 | 0.0 | 0.00 | 0.00 | 0.00 | 64 | |
| 20260901111033 | 61 | 54 | 0.0 | 0.0 | 0.00 | 0.00 | 0.00 | 63 | |
| 20260901110032 | 61 | 54 | 0.0 | 0.0 | 0.00 | 0.00 | 0.00 | 100 | |
| 20260901105032 | 62 | 54 | 0.0 | 0.0 | 0.00 | 0.00 | 0.00 | 58 | |
| 20260901104031 | 62 | 54 | 0.0 | 0.0 | 0.00 | 0.00 | 0.00 | 100 | |
| 20260901103030 | 61 | 54 | 0.0 | 0.0 | 0.00 | 0.00 | 0.00 | 60 | |
| 20260901102030 | 60 | 54 | 0.0 | 0.0 | 0.00 | 0.00 | 0.00 | 63 | |
| 20260901101030 | 59 | 54 | 0.0 | 0.0 | 0.00 | 0.00 | 0.00 | 64 | |
| 20260901100029 | 58 | 54 | 0.0 | 0.0 | 0.00 | 0.00 | 0.00 | 64 | |
| 20260901094028 | 60 | 63 | 0.0 | 0.0 | 0.00 | 0.00 | 0.00 | 61 | |
| 20260901093027 | 61 | 63 | 0.0 | 4.0 | 0.00 | 0.00 | 0.00 | 58 | |
| 20260901092026 | 60 | 80 | 0.0 | 0.0 | 0.00 | 0.00 | 0.00 | 57 | |
| 20260901091026 | 60 | 52 | 0.0 | 6.0 | 0.00 | 0.00 | 0.00 | 50 | |
| 20260901090025 | 61 | 53 | 0.0 | 3.0 | 0.00 | 0.00 | 0.00 | 54 | |
| 20260901085025 | 63 | 52 | 0.0 | 0.0 | 0.00 | 0.00 | 0.00 | 53 | |
| 20260901084024 | 63 | 52 | 0.0 | 0.0 | 0.00 | 0.00 | 0.00 | 50 | |
| 20260901083024 | 61 | 52 | 0.0 | 0.0 | 0.00 | 0.00 | 0.00 | 52 | |
| 20260901082023 | 61 | 42 | 0.0 | 2.0 | 0.00 | 0.00 | 0.00 | 54 | |
| 20260901081022 | 58 | 59 | 0.0 | 7.0 | 0.00 | 0.00 | 0.00 | 57 | |
| 20260901080022 | 57 | 66 | 0.0 | 7.0 | 0.00 | 0.00 | 0.00 | 57 | |
| 20260901075021 | 55 | 60 | 0.0 | 2.0 | 0.00 | 0.00 | 0.00 | 61 | |
| 20260901074020 | 53 | 54 | 2.0 | 2.0 | 0.00 | 0.00 | 0.00 | 67 | |
| 20260901073020 | 51 | 68 | 1.0 | 9.0 | 0.00 | 0.00 | 0.00 | 69 | |
| 20260901072019 | 51 | 54 | 0.0 | 0.0 | 0.00 | 0.00 | 0.00 | 75 | |
| 20260901071019 | 52 | 56 | 0.0 | 8.0 | 0.00 | 0.00 | 0.00 | 66 | |
| 20260901070018 | 53 | 60 | 0.0 | 7.0 | 0.00 | 0.00 | 0.00 | 65 | |
| 20260901065018 | 55 | 56 | 0.0 | 0.0 | 0.00 | 0.00 | 0.00 | 64 | |
| 20260901064017 | 54 | 40 | 0.0 | 0.0 | 0.00 | 0.00 | 0.00 | 66 | |
| 20260901063017 | 53 | 50 | 0.0 | 5.0 | 0.00 | 0.00 | 0.00 | 67 | |
| 20260901062016 | 53 | 63 | 9.0 | 9.0 | 0.00 | 0.00 | 0.00 | 65 | |
| 20260901061015 | 53 | 50 | 0.0 | 7.0 | 0.00 | 0.00 | 0.00 | 65 | |
| 20260901060015 | 53 | 63 | 0.0 | 9.0 | 0.00 | 0.00 | 0.00 | 67 | |
| 20260901055014 | 52 | 53 | 1.0 | 8.0 | 0.00 | 0.00 | 0.00 | 67 | |
| 20260901054015 | 51 | 46 | 0.0 | 5.0 | 0.00 | 0.00 | 0.00 | 69 | |
| 20260901053013 | 48 | 47 | 2.0 | 11.0 | 0.00 | 0.00 | 0.00 | 73 | |
| 20260901052012 | 48 | 61 | 0.0 | 8.0 | 0.00 | 0.00 | 0.00 | 73 |